Flag for Tunisia Weather past 2 weeks in Kairouan, Tunisia

Now
57 °F

Light rain. Broken clouds.


Feels Like: 56 °F
Forecast: 54 / 65 °F
Wind: 6 mph from Southwest

Location: Kairouan Airport

Current Time: Dec 18, 2014 at 5:27:08 PM

Latest Report: Dec 18, 2014 at 4:00 PM


Visibility: 5 mi

Pressure: 30.12 "Hg

Humidity: 82%

Dew point: 52 °F

Location of KairouanLocation

Historic Weather in Kairouan — Graph

°F

Kairouan temperature yesterday

Maximum temperature yesterday: 66 °F (at 12:00 PM)
Minimum temperature yesterday: 50 °F (at 2:00 AM)
Average temperature yesterday: 57 °F

Past Weeks' High & Low Weather Summary

 TemperatureHumidityPressure
High75 °F (Dec 4, 3:00 PM)88% (Dec 11, 4:00 PM)30.27 "Hg (Dec 11, 4:00 PM)
Low43 °F (Dec 13, 8:00 AM)26% (Dec 7, 3:00 PM)29.77 "Hg (Dec 9, 2:00 PM)
Average58 °F60%30.04 "Hg
* Reported Dec 3 4:00 PM — Dec 18 4:00 PM, Kairouan, Weather by CustomWeather, © 2014

Note: Actual official high and low records may vary slightly from our data, if they occured in-between our weather recording intervals... More about our weather records

Advertising

Kairouan weather history for previous 24 hours

 ConditionsComfort  
Time TempWeatherWind HumidityBarometerVisibility
4:00 PM
Dec 18
57 °FLight rain. Broken clouds.6 mph82%30.12 "Hg5 mi
3:00 PM59 °FLight rain. Broken clouds.5 mph72%30.09 "Hg5 mi
2:00 PM63 °FScattered clouds.3 mph59%30.09 "HgN/A
1:00 PM63 °FBroken clouds.5 mph56%30.09 "HgN/A
12:00 PM61 °FBroken clouds.5 mph59%30.12 "HgN/A
11:00 AM61 °FBroken clouds.2 mph59%30.15 "HgN/A
10:00 AM59 °FBroken clouds.2 mph63%30.15 "HgN/A
9:00 AM59 °FBroken clouds.2 mph63%30.12 "HgN/A
8:00 AM57 °FScattered clouds.2 mph63%30.12 "HgN/A
7:00 AM55 °FPassing clouds.2 mph67%30.09 "HgN/A
6:00 AM54 °FPassing clouds.2 mph72%30.09 "HgN/A
5:00 AM54 °FPassing clouds.2 mph72%30.07 "HgN/A
4:00 AM54 °FPassing clouds.3 mph72%30.09 "HgN/A
3:00 AM54 °FPassing clouds.1 mph72%30.09 "HgN/A
2:00 AM55 °FPassing clouds.1 mph67%30.12 "HgN/A
1:00 AM54 °FPassing clouds.2 mph67%30.12 "HgN/A
12:00 AM54 °FPassing clouds.2 mph63%30.12 "HgN/A
11:00 PM
Dec 17
54 °FPassing clouds.2 mph63%30.12 "HgN/A
10:00 PM54 °FPassing clouds.2 mph67%30.12 "HgN/A
9:00 PM57 °FPassing clouds.2 mph59%30.12 "HgN/A
8:00 PM59 °FPassing clouds.7 mph55%30.12 "HgN/A
7:00 PM61 °FPassing clouds.2 mph55%30.09 "HgN/A
6:00 PM61 °FPassing clouds.2 mph55%30.07 "HgN/A
5:00 PM63 °FPartly sunny.2 mph52%30.04 "HgN/A
Weather by CustomWeather, © 2014

See weather overviewHow to use our weather pages